FLOCK 2K-19

Last updated on Wed Feb 14 2018 16:20:54 GMT+0000 (Coordinated Universal Time)

1 42886U 17042BP 18044.90430823 .00006724 00000-0 19614-3 0 9991 2 42886 96.9932 307.7871 0012465 179.3979 180.7283 15.35578653 32714
UTC large
Height (km)
Speed (km/s)
/
Latitude / Longitude
Inclination (degrees)
Orbital Period (minutes)
Azimuth
Elevation
Range (km)
Doppler Factor

Next 0 passes for location: London (51.5072 / 0.1276)

Sorry there are no passes over London.